Location: La Pernelle
(49.6188°N, 1.2999°W)
Time: 09:46:03
(UTC+00:00)

SL-23 DEB - Pass Details

Date: 12 June 2021
Orbit: 425 x 3625 km, 51.4° (Epoch: 03 August)

Event Time Altitude Azimuth Distance (km) Brightness Sun altitude
Rises 21:40:19 0° 256° (WSW) 2,496 7.4 -10.4°
Reaches altitude 10° 21:42:04 10° 257° (WSW) 1,738 6.6 -10.5°
Maximum altitude 21:45:47 84° 346° (NNW) 675 4.3 -10.9°
Drops below altitude 10° 21:51:58 10° 75° (ENE) 2,853 7.3 -11.4°
Sets 21:55:35 0° 77° (ENE) 4,305 8.2 -11.7°
